SL-3 R/B

Satellite information

Favourite Embed

Satellite Type and Status

ROCKET BODYIN ORBIT

Key statistics

Satellite SL-3 R/B at a glance.

Uptime

15226

Days in orbit

Revolutions

≈ 14.3

Per day

Orbit

LEO

Low Earth Orbit

Inclination

81.2

Latest

Satellite identification and parameters

Extended collection of information and parameters for SL-3 R/B.

Object identification

Identified? True

Debris? False

Object name: SL-3 R/B

International designator: 1983-109B

Object number (NORAD): 14453

Object ID (CCSDS): 14453

Country: COMMONWEALTH OF INDEPENDENT STATES (CIS)

Current information (Y/N): Y

RCS size: LARGE

Orbital parameters

Period: 101.027 minutes

Inclination: 81.1655 deg

SMA: 7185.438 km

Apoapsis: 881.709 km

Periapsis: 732.897 km

RAAN: 28.4252 deg

Eccentricy: 0.0103551

Argument of periapsis: 197.4825 deg

Mean anomaly: 162.2781 deg

Mean motion: 14.25354562 rev/day

Mean motion (dot): 0.00000104 rev/day2

B* drag term: 0.000036601 1/REarth

Two-line elements (TLE)

Creation date: July 4, 2025, 6:39 p.m.

Reference frame: TEME

Reference center: EARTH

Epoch: July 4, 2025, 1:37 p.m. UTC

TLE line 0: 0 SL-3 R/B

TLE line 1: 1 14453U 83109B 25185.56767094 .00000104 00000-0 36601-4 0 9998

TLE line 2: 2 14453 81.1655 28.4252 0103551 197.4825 162.2781 14.25354562166028

Live tracking on map

Real-time ground track for satellite SL-3 R/B.

In-orbit conjunctions

A list of the most updated potential collisions computed for object SL-3 R/B.

Target Orbit TCA Probability of collision Miss distance Type
FENGYUN 1C DEB SSO 2025-01-12 02:58:01 0.00013578 486.0 (m) DEBRIS
SL-14 DEB LEO 2024-11-20 06:16:24 0.0001413744 484.0 (m) DEBRIS
FENGYUN 1C DEB SSO 2024-09-27 05:41:55 0.000493891 408.0 (m) DEBRIS
NOAA 16 DEB SSO 2024-09-17 04:33:39 0.0001462293 914.0 (m) DEBRIS
THORAD AGENA D DEB SSO 2024-08-24 06:08:05 0.000110472 322.0 (m) DEBRIS

Associated space launch

Second generation soviet meteorological satellite

SL-3 R/B was lifted into orbit during the mission ‘Vostok 8A92M | Meteor-2 10’, on board a Vostok 8A92M space rocket.

The launch took place on Oct. 28, 1983, 9 a.m. from 16/2.

For more information about the launch, click the button.

Launch to space Vostok 8A92M | Meteor-2 10
Vostok 8A92M | Meteor-2 10

Agency: N/A

Status: Launch Successful

Launch date: Oct. 28, 1983, 9 a.m. UTC

Rocket: Vostok 8A92M

Launch pad: 16/2

Location: Plesetsk Cosmodrome, Russian Federation

...

Latest news about this satellite

There are no fresh news available about this satellite. Check back as we update our databases every day.


Newsletter sign-up

Weekly statistics, charts and insights to help you stay on top of the space industry.